TimePST,TemperatureF,Dew PointF,Humidity,Sea Level PressureIn,VisibilityMPH,Wind Direction,Wind SpeedMPH,Gust SpeedMPH,PrecipitationIn,Events,Conditions,WindDirDegrees,DateUTC
12:15 AM,41.0,26.6,57,29.89,10.0,Calm,Calm,-,N/A,,Clear,0,2013-11-04 08:15:00
12:35 AM,42.8,26.6,53,29.89,10.0,Calm,Calm,-,N/A,,Clear,0,2013-11-04 08:35:00
12:55 AM,42.8,24.8,49,29.89,10.0,Calm,Calm,-,N/A,,Clear,0,2013-11-04 08:55:00
1:15 AM,42.8,24.8,49,29.89,10.0,Calm,Calm,-,N/A,,Clear,0,2013-11-04 09:15:00
1:35 AM,44.6,23.0,43,29.88,10.0,Calm,Calm,-,N/A,,Clear,0,2013-11-04 09:35:00
1:55 AM,46.4,23.0,40,29.87,10.0,East,4.6,-,N/A,,Clear,100,2013-11-04 09:55:00
2:15 AM,46.4,21.2,37,29.87,10.0,East,4.6,-,N/A,,Clear,100,2013-11-04 10:15:00
2:35 AM,46.4,23.0,40,29.88,10.0,Calm,Calm,-,N/A,,Clear,0,2013-11-04 10:35:00
2:55 AM,44.6,23.0,43,29.88,10.0,Calm,Calm,-,N/A,,Clear,0,2013-11-04 10:55:00
3:15 AM,42.8,23.0,46,29.87,10.0,Calm,Calm,-,N/A,,Clear,0,2013-11-04 11:15:00
3:35 AM,41.0,23.0,49,29.87,10.0,Calm,Calm,-,N/A,,Clear,0,2013-11-04 11:35:00
3:55 AM,44.6,23.0,43,29.87,10.0,NNE,3.5,-,N/A,,Clear,30,2013-11-04 11:55:00
4:15 AM,42.8,23.0,46,29.88,10.0,NNE,3.5,-,N/A,,Clear,20,2013-11-04 12:15:00
4:35 AM,46.4,19.4,34,29.89,10.0,NE,4.6,-,N/A,,Scattered Clouds,40,2013-11-04 12:35:00
4:55 AM,46.4,19.4,34,29.90,10.0,NE,3.5,-,N/A,,Mostly Cloudy,50,2013-11-04 12:55:00
5:15 AM,44.6,19.4,37,29.90,10.0,East,3.5,-,N/A,,Scattered Clouds,80,2013-11-04 13:15:00
5:35 AM,46.4,19.4,34,29.90,10.0,ENE,6.9,-,N/A,,Partly Cloudy,70,2013-11-04 13:35:00
5:55 AM,46.4,19.4,34,29.91,10.0,East,11.5,16.1,N/A,,Partly Cloudy,80,2013-11-04 13:55:00
6:15 AM,46.4,17.6,32,29.92,10.0,East,11.5,19.6,N/A,,Clear,90,2013-11-04 14:15:00
6:35 AM,46.4,17.6,32,29.93,10.0,East,11.5,16.1,N/A,,Clear,90,2013-11-04 14:35:00
6:55 AM,46.4,17.6,32,29.93,10.0,East,9.2,-,N/A,,Clear,90,2013-11-04 14:55:00
7:15 AM,46.4,19.4,34,29.94,10.0,ENE,3.5,-,N/A,,Clear,70,2013-11-04 15:15:00
7:35 AM,48.2,19.4,32,29.95,10.0,ENE,5.8,-,N/A,,Clear,60,2013-11-04 15:35:00
7:55 AM,48.2,19.4,32,29.95,10.0,ENE,4.6,-,N/A,,Clear,60,2013-11-04 15:55:00
8:15 AM,48.2,19.4,32,29.96,10.0,East,11.5,-,N/A,,Clear,80,2013-11-04 16:15:00
8:35 AM,50.0,19.4,30,29.96,10.0,East,9.2,-,N/A,,Clear,100,2013-11-04 16:35:00
8:55 AM,51.8,19.4,28,29.97,10.0,ESE,5.8,16.1,N/A,,Clear,110,2013-11-04 16:55:00
9:15 AM,51.8,19.4,28,29.98,10.0,ENE,5.8,-,N/A,,Clear,60,2013-11-04 17:15:00
9:35 AM,53.6,17.6,24,29.98,10.0,ENE,8.1,17.3,N/A,,Clear,70,2013-11-04 17:35:00
9:55 AM,53.6,17.6,24,29.99,10.0,East,9.2,-,N/A,,Clear,80,2013-11-04 17:55:00
10:15 AM,53.6,19.4,26,29.99,10.0,Calm,Calm,-,N/A,,Clear,0,2013-11-04 18:15:00
10:35 AM,53.6,17.6,24,29.99,10.0,Calm,Calm,-,N/A,,Clear,0,2013-11-04 18:35:00
10:55 AM,55.4,19.4,25,29.98,10.0,Calm,Calm,-,N/A,,Clear,0,2013-11-04 18:55:00
11:15 AM,55.4,17.6,23,29.98,10.0,NW,9.2,-,N/A,,Clear,320,2013-11-04 19:15:00
11:35 AM,57.2,17.6,21,29.98,10.0,North,6.9,-,N/A,,Clear,350,2013-11-04 19:35:00
11:55 AM,57.2,15.8,20,29.97,10.0,NNE,8.1,17.3,N/A,,Clear,30,2013-11-04 19:55:00
12:15 PM,57.2,14.0,18,29.97,10.0,NNE,6.9,16.1,N/A,,Clear,30,2013-11-04 20:15:00
12:35 PM,59.0,14.0,17,29.97,10.0,North,9.2,16.1,N/A,,Clear,360,2013-11-04 20:35:00
12:55 PM,59.0,14.0,17,29.97,10.0,ENE,11.5,-,N/A,,Clear,60,2013-11-04 20:55:00
1:15 PM,59.0,14.0,17,29.97,10.0,NE,8.1,-,N/A,,Clear,50,2013-11-04 21:15:00
1:35 PM,59.0,14.0,17,29.97,10.0,ENE,8.1,17.3,N/A,,Clear,70,2013-11-04 21:35:00
1:55 PM,59.0,12.2,16,29.97,10.0,NE,8.1,-,N/A,,Clear,40,2013-11-04 21:55:00
2:15 PM,59.0,14.0,17,29.97,10.0,NNE,8.1,-,N/A,,Clear,30,2013-11-04 22:15:00
2:35 PM,59.0,14.0,17,29.97,10.0,North,6.9,-,N/A,,Clear,350,2013-11-04 22:35:00
2:55 PM,59.0,14.0,17,29.97,10.0,NNE,3.5,-,N/A,,Clear,30,2013-11-04 22:55:00
3:15 PM,59.0,12.2,16,29.98,10.0,NNE,5.8,-,N/A,,Clear,20,2013-11-04 23:15:00
3:35 PM,59.0,12.2,16,29.98,9.0,North,6.9,-,N/A,,Clear,360,2013-11-04 23:35:00
3:55 PM,59.0,12.2,16,30.00,10.0,North,3.5,-,N/A,,Clear,360,2013-11-04 23:55:00
4:15 PM,57.2,12.2,17,30.00,10.0,NNE,5.8,-,N/A,,Clear,20,2013-11-05 00:15:00
4:35 PM,57.2,14.0,18,30.01,10.0,NE,5.8,-,N/A,,Clear,40,2013-11-05 00:35:00
4:55 PM,55.4,14.0,20,30.02,10.0,NE,4.6,-,N/A,,Clear,40,2013-11-05 00:55:00
5:15 PM,55.4,14.0,20,30.03,10.0,NNE,5.8,-,N/A,,Clear,30,2013-11-05 01:15:00
5:35 PM,53.6,14.0,21,30.03,10.0,Calm,Calm,-,N/A,,Clear,0,2013-11-05 01:35:00
5:55 PM,53.6,14.0,21,30.04,10.0,ENE,6.9,-,N/A,,Clear,60,2013-11-05 01:55:00
6:15 PM,53.6,14.0,21,30.05,10.0,NE,6.9,-,N/A,,Clear,50,2013-11-05 02:15:00
6:35 PM,53.6,12.2,19,30.05,10.0,NE,6.9,-,N/A,,Clear,40,2013-11-05 02:35:00
6:55 PM,51.8,12.2,21,30.05,10.0,NNE,5.8,-,N/A,,Clear,30,2013-11-05 02:55:00
7:15 PM,50.0,14.0,24,30.06,10.0,NE,5.8,-,N/A,,Clear,40,2013-11-05 03:15:00
7:35 PM,50.0,14.0,24,30.06,10.0,NE,6.9,-,N/A,,Clear,40,2013-11-05 03:35:00
7:55 PM,50.0,15.8,26,30.07,10.0,NE,8.1,-,N/A,,Clear,40,2013-11-05 03:55:00
8:15 PM,50.0,15.8,26,30.07,10.0,NE,5.8,-,N/A,,Clear,40,2013-11-05 04:15:00
8:35 PM,48.2,15.8,27,30.08,10.0,NE,3.5,-,N/A,,Clear,40,2013-11-05 04:35:00
8:55 PM,48.2,15.8,27,30.08,10.0,Calm,Calm,-,N/A,,Clear,0,2013-11-05 04:55:00
9:15 PM,48.2,15.8,27,30.08,10.0,NNE,4.6,-,N/A,,Clear,20,2013-11-05 05:15:00
9:35 PM,48.2,15.8,27,30.08,10.0,Calm,Calm,-,N/A,,Clear,0,2013-11-05 05:35:00
9:55 PM,46.4,15.8,29,30.08,10.0,Calm,Calm,-,N/A,,Clear,0,2013-11-05 05:55:00
10:15 PM,46.4,15.8,29,30.09,10.0,Calm,Calm,-,N/A,,Clear,0,2013-11-05 06:15:00
10:35 PM,46.4,15.8,29,30.09,10.0,NNE,3.5,-,N/A,,Clear,20,2013-11-05 06:35:00
10:55 PM,44.6,17.6,34,30.09,10.0,NNE,4.6,-,N/A,,Clear,20,2013-11-05 06:55:00
11:15 PM,46.4,15.8,29,30.09,10.0,NNE,3.5,-,N/A,,Clear,20,2013-11-05 07:15:00
11:35 PM,46.4,15.8,29,30.10,10.0,North,3.5,-,N/A,,Clear,360,2013-11-05 07:35:00
11:55 PM,46.4,15.8,29,30.10,10.0,Calm,Calm,-,N/A,,Clear,0,2013-11-05 07:55:00